Simultaneous Nadir Overpasses (SNOs) Predictions

Prediction of SNOs between AQUA and GOES-15 Satellite Orbit:

Table of predicted SNOs for the next 14.0 days since TLE Epoch: 5/16/2025
Index Date Time (AQUA) AQUA Lat,Lon GOES-15 Lat,Lon Distance(km) Time Diff (sec)
1 05/16/2025 22:29:42 -0.23, 62.55 -0.05, 61.71 95.49 80
2 05/17/2025 10:49:03 -0.73, 57.87 0.07, 61.68 433.03 80
3 05/19/2025 10:28:51 0.28, 62.82 0.05, 61.65 132.90 80
4 05/19/2025 22:48:03 0.65, 58.18 -0.07, 61.67 396.73 80
5 05/21/2025 22:27:51 -0.40, 63.12 -0.06, 61.64 169.21 80
6 05/22/2025 10:47:11 -0.61, 58.45 0.08, 61.61 359.30 80
7 05/24/2025 10:26:59 0.48, 63.40 0.08, 61.59 206.15 80
8 05/24/2025 22:46:09 0.50, 58.76 -0.10, 61.61 323.76 80
9 05/26/2025 22:25:56 -0.56, 63.71 -0.09, 61.59 240.91 80
10 05/27/2025 10:45:16 -0.42, 59.03 0.12, 61.57 287.88 80
11 05/29/2025 10:25:02 0.61, 63.99 0.11, 61.56 276.41 80
12 05/29/2025 22:44:13 0.35, 59.35 -0.13, 61.58 253.77 80
